Flag for Romania Weather past 2 weeks in Târgu Mureş, Romania

Now
43 °F

Clear.


Feels Like: 39 °F
Forecast: 36 / 45 °F
Wind: 6 mph from Southwest

Location: Tirgu Mures Airport

Current Time: Mar 2, 2015 at 7:01:43 AM

Latest Report: Mar 2, 2015 at 6:30 AM


Visibility: 10 mi

Pressure: 29.89 "Hg

Humidity: 81%

Dew point: 37 °F

Location of Târgu MureşLocation

Historic Weather in Târgu Mureş — Graph

°F

Târgu Mureş temperature yesterday

Maximum temperature yesterday: 59 °F (at 2:30 PM)
Minimum temperature yesterday: 43 °F (at 3:00 AM)
Average temperature yesterday: 48 °F

Past Weeks' High & Low Weather Summary

 TemperatureHumidityPressure
High61 °F (Feb 24, 3:00 PM)100% (Feb 15, 8:30 AM)30.69 "Hg (Feb 15, 8:30 AM)
Low9 °F (Feb 18, 7:30 AM)23% (Feb 17, 3:30 PM)29.65 "Hg (Feb 24, 4:00 PM)
Average38 °F78%30.09 "Hg
* Reported Feb 15 6:00 AM — Mar 2 6:00 AM, Târgu Mureş, Weather by CustomWeather, © 2015

Note: Actual official high and low records may vary slightly from our data, if they occured in-between our weather recording intervals... More about our weather records

Advertising

Târgu Mureş weather history for previous 24 hours

 ConditionsComfort  
Time TempWeatherWind HumidityBarometerVisibility
6:00 AM
Mon, Mar 2
41 °FPassing clouds.7 mph87%29.89 "HgN/A
5:30 AM43 °FPassing clouds.7 mph81%29.89 "HgN/A
5:00 AM45 °FPassing clouds.13 mph76%29.89 "HgN/A
4:00 AM45 °FPassing clouds.13 mph81%29.89 "HgN/A
3:00 AM41 °FPassing clouds.2 mph100%29.89 "Hg4 mi
2:00 AM41 °FFog.1 mph93%29.89 "Hg3 mi
1:00 AM41 °FFog.No wind93%29.92 "Hg3 mi
12:00 AM41 °FPassing clouds.3 mph100%29.92 "Hg4 mi
11:00 PM
Sun, Mar 1
43 °FPassing clouds.5 mph93%29.92 "Hg4 mi
10:00 PM43 °FPassing clouds.5 mph93%29.92 "HgN/A
9:00 PM46 °FPassing clouds.5 mph87%29.92 "HgN/A
8:30 PM46 °FPassing clouds.3 mph87%29.92 "HgN/A
8:00 PM46 °FPassing clouds.3 mph93%29.95 "HgN/A
7:30 PM46 °FPassing clouds.3 mph93%29.92 "HgN/A
7:00 PM48 °FLight rain. Passing clouds.3 mph87%29.92 "HgN/A
6:30 PM48 °FSprinkles. Passing clouds.3 mph87%29.92 "HgN/A
6:00 PM50 °FSprinkles. Scattered clouds.7 mph82%29.92 "HgN/A
5:30 PM50 °FScattered clouds.5 mph82%29.92 "HgN/A
5:00 PM52 °FScattered clouds.3 mph77%29.92 "HgN/A
4:30 PM50 °FSprinkles. Broken clouds.3 mph82%29.92 "HgN/A
4:00 PM52 °FSprinkles. Scattered clouds.14 mph72%29.92 "HgN/A
3:30 PM57 °FScattered clouds.6 mph51%29.92 "HgN/A
3:00 PM57 °FScattered clouds.7 mph55%29.95 "HgN/A
2:30 PM59 °FScattered clouds.6 mph51%29.95 "HgN/A
2:00 PM57 °FScattered clouds.3 mph59%29.95 "HgN/A
1:30 PM57 °FScattered clouds.6 mph63%29.98 "HgN/A
1:00 PM55 °FScattered clouds.3 mph63%29.98 "HgN/A
12:30 PM54 °FScattered clouds.2 mph67%30.01 "HgN/A
12:00 PM52 °FScattered clouds.1 mph72%30.04 "HgN/A
11:30 AM52 °FScattered clouds.1 mph77%30.04 "HgN/A
11:00 AM52 °FScattered clouds.1 mph77%30.04 "HgN/A
10:30 AM52 °FScattered clouds.2 mph77%30.04 "HgN/A
10:00 AM48 °FScattered clouds.5 mph87%30.04 "HgN/A
9:30 AM48 °FPassing clouds.5 mph87%30.04 "Hg4 mi
9:00 AM46 °FPassing clouds.5 mph93%30.04 "Hg4 mi
8:30 AM45 °FFog.3 mph93%30.04 "Hg2 mi
8:00 AM43 °FFog.2 mph93%30.04 "Hg1 mi
7:30 AM43 °FFog.5 mph93%30.04 "Hg2 mi
7:00 AM43 °FLight rain. Fog.5 mph93%30.04 "Hg2 mi
Weather by CustomWeather, © 2015

See weather overviewHow to use our weather pages